This demonstration page uses our WeatherBlox Daily Observations layout. Learn more.

Left ArrowRight Arrow

41.86663, -103.66717

Hourly Observations for January 19, 2016

Temp ( °F °C ) Dew Point ( °F °C ) Humidity (%) Winds ( mph kmh ) Pressure ( in mb ) Visibility ( mi km ) Precip ( " mm )
12:00 am 00:00 Cloudy with Light Snow 34 1 32 undefined 93 93 NNW 7 11 30.06 1018 3 5 N/A
12:03 am 00:03 Cloudy with Light Snow 34 1 32 undefined 93 93 NNW 7 11 30.06 1018 3 4 N/A
12:53 am 00:53 Cloudy with Light Snow 33 0.6 32 undefined 96 96 W 6 9 30.06 1018 4 6 0.04 1.02
1:09 am 01:09 Cloudy 33 0.6 32 undefined 96 96 WNW 8 13 30.06 1018 10 16 N/A
1:53 am 01:53 Cloudy 34 1.1 32 undefined 92 92 WNW 12 19 30.07 1018 10 16 N/A
2:40 am 02:40 Mostly Cloudy 36 2 32 undefined 87 87 WNW 15 24 30.12 1020 10 16 N/A
2:53 am 02:53 Cloudy 34 1.1 32 undefined 92 92 WNW 12 19 30.10 1019 10 16 N/A
3:53 am 03:53 Cloudy 35 1.7 31 -0.6 85 85 NW 12 19 30.12 1020 10 16 N/A
4:53 am 04:53 Mostly Clear 33 0.6 29 -1.7 85 85 WNW 13 20 30.15 1021 10 16 N/A
5:53 am 05:53 Clear 31 -0.6 27 -2.8 85 85 WNW 10 17 30.18 1022 10 16 N/A
6:53 am 06:53 Clear 29 -1.7 26 -3.3 89 89 WNW 9 15 30.19 1023 10 16 N/A
7:53 am 07:53 Sunny 28 -2.2 25 -3.9 88 88 WNW 9 15 30.22 1024 10 16 N/A
8:53 am 08:53 Sunny 31 -0.6 26 -3.3 82 82 WNW 9 15 30.22 1024 10 16 N/A
9:53 am 09:53 Sunny 34 1.1 27 -2.8 76 76 WNW 10 17 30.22 1023 10 16 N/A
10:53 am 10:53 Sunny 36 2.2 28 -2.2 73 73 WNW 10 17 30.20 1023 10 16 N/A
11:53 am 11:53 Sunny 39 3.9 28 -2.2 65 65 WNW 6 9 30.16 1021 10 16 N/A
12:53 pm 12:53 Sunny 39 3.9 29 -1.7 67 67 W 9 15 30.13 1020 10 16 N/A
1:53 pm 13:53 Sunny 41 5 27 -2.8 57 57 W 6 9 30.10 1019 10 16 N/A
2:53 pm 14:53 Sunny 41 5 27 -2.8 57 57 N N/A 30.09 1019 10 16 N/A
3:53 pm 15:53 Sunny 39 3.9 28 -2.2 65 65 S 5 7 30.09 1019 10 16 N/A
4:53 pm 16:53 Clear 36 2.2 27 -2.8 70 70 SE 10 17 30.09 1019 10 16 N/A
5:53 pm 17:53 Clear 32 undefined 24 -4.4 73 73 SE 9 15 30.10 1019 10 16 N/A
6:53 pm 18:53 Clear 28 -2.2 23 -5 81 81 ESE 6 9 30.10 1019 10 16 N/A
7:53 pm 19:53 Clear 27 -2.8 22 -5.6 81 81 N N/A 30.09 1019 10 16 N/A
8:53 pm 20:53 Clear 31 -0.6 24 -4.4 76 76 S 6 9 30.05 1018 10 16 N/A
9:53 pm 21:53 Clear 33 0.6 24 -4.4 70 70 SW 5 7 30.01 1016 10 16 N/A
10:53 pm 22:53 Clear 24 -4.4 20 -6.7 84 84 NE 5 7 30.02 1017 10 16 N/A
11:53 pm 23:53 Clear 22 -5.6 18 -7.8 85 85 NE 8 13 29.98 1015 10 16 N/A

Powered by AerisWeather